Time,TemperatureF,DewpointF,PressureIn,WindDirection,WindDirectionDegrees,WindSpeedMPH,WindSpeedGustMPH,Humidity,HourlyPrecipIn,Conditions,Clouds,dailyrainin,SolarRadiationWatts/m^2,SoftwareType,DateUTC
2013-04-23 00:00:00,67.8,67.5,30.02,North,0,0.0,0.0,99,0.00,CLR,,0.00,0.0,WeatherDisplay:10.37,2013-04-22 14:00:00,
2013-04-23 00:05:00,68.0,67.7,30.01,North,0,0.0,0.0,99,0.00,CLR,,0.00,0.0,WeatherDisplay:10.37,2013-04-22 14:05:00,
2013-04-23 00:10:00,68.0,67.7,30.01,North,0,0.0,0.0,99,0.00,CLR,,0.00,0.0,WeatherDisplay:10.37,2013-04-22 14:10:00,
2013-04-23 00:15:00,67.8,67.5,30.01,North,0,0.0,0.0,99,0.00,CLR,,0.00,0.0,WeatherDisplay:10.37,2013-04-22 14:15:00,
2013-04-23 00:20:00,67.8,67.5,30.01,North,0,0.0,0.0,99,0.00,CLR,,0.00,0.0,WeatherDisplay:10.37,2013-04-22 14:20:00,
2013-04-23 00:25:00,68.0,67.7,30.01,North,0,0.0,0.0,99,0.00,CLR,,0.00,0.0,WeatherDisplay:10.37,2013-04-22 14:25:00,
2013-04-23 00:30:00,67.8,67.5,30.00,North,0,0.0,0.0,99,0.00,CLR,,0.00,0.0,WeatherDisplay:10.37,2013-04-22 14:30:00,
2013-04-23 00:35:00,67.6,67.3,30.00,North,0,0.0,0.0,99,0.00,CLR,,0.00,0.0,WeatherDisplay:10.37,2013-04-22 14:35:00,
2013-04-23 00:40:00,67.6,67.3,30.00,NNE,13,0.0,0.0,99,0.00,CLR,,0.00,0.0,WeatherDisplay:10.37,2013-04-22 14:40:00,
2013-04-23 00:45:00,68.0,67.7,30.00,ESE,102,0.0,0.0,99,0.00,CLR,,0.00,0.0,WeatherDisplay:10.37,2013-04-22 14:45:00,
2013-04-23 00:50:00,68.1,67.9,30.00,SE,135,0.0,2.0,99,0.00,CLR,,0.00,0.0,WeatherDisplay:10.37,2013-04-22 14:50:00,
2013-04-23 00:55:00,68.4,68.1,30.00,SE,131,0.0,3.0,99,0.00,CLR,,0.00,0.0,WeatherDisplay:10.37,2013-04-22 14:55:00,
2013-04-23 01:00:00,68.4,68.1,30.00,SE,132,0.0,0.0,99,0.00,CLR,,0.00,0.0,WeatherDisplay:10.37,2013-04-22 15:00:00,
2013-04-23 01:05:00,68.5,68.2,30.00,SE,135,0.0,0.0,99,0.00,CLR,,0.00,0.0,WeatherDisplay:10.37,2013-04-22 15:05:00,
2013-04-23 01:10:00,68.7,68.4,30.00,SE,128,0.0,0.0,99,0.00,CLR,,0.00,0.0,WeatherDisplay:10.37,2013-04-22 15:10:00,
2013-04-23 01:15:00,68.9,68.6,30.00,SE,128,1.0,3.0,99,0.00,CLR,,0.00,0.0,WeatherDisplay:10.37,2013-04-22 15:15:00,
2013-04-23 01:20:00,68.9,68.6,30.00,SE,135,0.0,3.0,99,0.00,CLR,,0.00,0.0,WeatherDisplay:10.37,2013-04-22 15:20:00,
2013-04-23 01:25:00,68.7,68.4,30.00,SE,127,1.0,3.0,99,0.00,CLR,,0.00,0.0,WeatherDisplay:10.37,2013-04-22 15:25:00,
2013-04-23 01:30:00,68.7,68.4,30.00,ESE,123,0.0,3.0,99,0.00,CLR,,0.00,0.0,WeatherDisplay:10.37,2013-04-22 15:30:00,
2013-04-23 01:35:00,68.7,68.4,29.99,SE,129,3.0,5.0,99,0.00,CLR,,0.00,0.0,WeatherDisplay:10.37,2013-04-22 15:35:00,
2013-04-23 01:40:00,68.5,68.2,29.99,ESE,117,3.0,6.0,99,0.00,CLR,,0.00,0.0,WeatherDisplay:10.37,2013-04-22 15:40:00,
2013-04-23 01:45:00,68.4,68.1,29.99,SE,124,3.0,6.0,99,0.00,CLR,,0.00,0.0,WeatherDisplay:10.37,2013-04-22 15:45:00,
2013-04-23 01:50:00,68.5,68.2,29.99,SE,129,3.0,6.0,99,0.00,CLR,,0.00,0.0,WeatherDisplay:10.37,2013-04-22 15:50:00,
2013-04-23 01:55:00,68.7,68.4,29.99,SE,131,2.0,6.0,99,0.00,CLR,,0.00,0.0,WeatherDisplay:10.37,2013-04-22 15:55:00,
2013-04-23 02:00:00,68.9,68.6,29.99,SE,135,2.0,4.0,99,0.00,CLR,,0.00,0.0,WeatherDisplay:10.37,2013-04-22 16:00:00,
2013-04-23 02:05:00,69.1,68.8,29.99,SE,144,2.0,5.0,99,0.00,CLR,,0.00,0.0,WeatherDisplay:10.37,2013-04-22 16:05:00,
2013-04-23 02:10:00,69.1,68.8,29.99,SE,145,1.0,4.0,99,0.00,CLR,,0.00,0.0,WeatherDisplay:10.37,2013-04-22 16:10:00,
2013-04-23 02:15:00,69.1,68.8,29.99,SE,143,1.0,2.0,99,0.00,CLR,,0.00,0.0,WeatherDisplay:10.37,2013-04-22 16:15:00,
2013-04-23 02:20:00,69.1,68.8,29.99,SSE,148,1.0,3.0,99,0.00,CLR,,0.00,0.0,WeatherDisplay:10.37,2013-04-22 16:20:00,
2013-04-23 02:25:00,69.1,68.8,29.99,SE,131,1.0,3.0,99,0.00,CLR,,0.00,0.0,WeatherDisplay:10.37,2013-04-22 16:25:00,
2013-04-23 02:30:00,69.1,68.8,29.98,SE,132,0.0,2.0,99,0.00,CLR,,0.00,0.0,WeatherDisplay:10.37,2013-04-22 16:30:00,
2013-04-23 02:35:00,69.1,68.8,29.98,SE,135,1.0,2.0,99,0.00,CLR,,0.00,0.0,WeatherDisplay:10.37,2013-04-22 16:35:00,
2013-04-23 02:40:00,69.1,68.8,29.98,SE,135,0.0,2.0,99,0.00,CLR,,0.00,0.0,WeatherDisplay:10.37,2013-04-22 16:40:00,
2013-04-23 02:45:00,69.1,68.8,29.98,SE,135,0.0,0.0,99,0.00,CLR,,0.00,0.0,WeatherDisplay:10.37,2013-04-22 16:45:00,
2013-04-23 02:50:00,69.1,68.8,29.98,SE,135,0.0,0.0,99,0.00,CLR,,0.00,0.0,WeatherDisplay:10.37,2013-04-22 16:50:00,
2013-04-23 02:55:00,69.1,68.8,29.98,SE,135,0.0,0.0,99,0.00,CLR,,0.00,0.0,WeatherDisplay:10.37,2013-04-22 16:55:00,
2013-04-23 03:00:00,69.1,68.8,29.98,ESE,115,0.0,0.0,99,0.00,CLR,,0.00,0.0,WeatherDisplay:10.37,2013-04-22 17:00:00,
2013-04-23 03:05:00,69.1,68.9,29.98,ENE,63,0.0,1.0,99,0.00,CLR,,0.00,0.0,WeatherDisplay:10.37,2013-04-22 17:05:00,
2013-04-23 03:10:00,69.3,69.0,29.98,NE,45,0.0,2.0,99,0.00,CLR,,0.00,0.0,WeatherDisplay:10.37,2013-04-22 17:10:00,
2013-04-23 03:15:00,69.3,69.0,29.98,NE,52,1.0,2.0,99,0.00,CLR,,0.00,0.0,WeatherDisplay:10.37,2013-04-22 17:15:00,
2013-04-23 03:20:00,69.3,69.0,29.98,East,93,0.0,2.0,99,0.00,CLR,,0.00,0.0,WeatherDisplay:10.37,2013-04-22 17:20:00,
2013-04-23 03:25:00,69.1,68.8,29.98,East,94,1.0,2.0,99,0.00,CLR,,0.00,0.0,WeatherDisplay:10.37,2013-04-22 17:25:00,
2013-04-23 03:30:00,68.9,68.6,29.98,NE,52,0.0,1.0,99,0.00,CLR,,0.00,0.0,WeatherDisplay:10.37,2013-04-22 17:30:00,
2013-04-23 03:35:00,68.9,68.6,29.98,NE,45,0.0,1.0,99,0.00,CLR,,0.00,0.0,WeatherDisplay:10.37,2013-04-22 17:35:00,
2013-04-23 03:40:00,68.9,68.6,29.98,NE,45,0.0,1.0,99,0.00,CLR,,0.00,0.0,WeatherDisplay:10.37,2013-04-22 17:40:00,
2013-04-23 03:45:00,68.7,68.4,29.98,NE,45,0.0,1.0,99,0.00,CLR,,0.00,0.0,WeatherDisplay:10.37,2013-04-22 17:45:00,
2013-04-23 03:50:00,68.7,68.4,29.98,NE,45,0.0,1.0,99,0.00,CLR,,0.00,0.0,WeatherDisplay:10.37,2013-04-22 17:50:00,
2013-04-23 03:55:00,68.7,68.4,29.98,NE,45,0.0,1.0,99,0.00,CLR,,0.00,0.0,WeatherDisplay:10.37,2013-04-22 17:55:00,
2013-04-23 04:00:00,68.9,68.6,29.98,East,91,1.0,3.0,99,0.00,CLR,,0.00,0.0,WeatherDisplay:10.37,2013-04-22 18:00:00,
2013-04-23 04:05:00,68.7,68.4,29.98,SE,130,2.0,5.0,99,0.00,CLR,,0.00,0.0,WeatherDisplay:10.37,2013-04-22 18:05:00,
2013-04-23 04:10:00,68.6,68.3,29.98,SE,131,3.0,5.0,99,0.00,CLR,,0.00,0.0,WeatherDisplay:10.37,2013-04-22 18:10:00,
2013-04-23 04:15:00,68.5,68.2,29.98,ESE,117,3.0,5.0,99,0.00,CLR,,0.00,0.0,WeatherDisplay:10.37,2013-04-22 18:15:00,
2013-04-23 04:20:00,68.4,68.1,29.98,ESE,113,3.0,5.0,99,0.00,CLR,,0.00,0.0,WeatherDisplay:10.37,2013-04-22 18:20:00,
2013-04-23 04:25:00,68.2,67.9,29.99,SE,128,3.0,5.0,99,0.00,CLR,,0.00,0.0,WeatherDisplay:10.37,2013-04-22 18:25:00,
2013-04-23 04:30:00,68.4,68.1,29.99,SE,138,3.0,5.0,99,0.00,CLR,,0.00,0.0,WeatherDisplay:10.37,2013-04-22 18:30:00,
2013-04-23 04:35:00,68.2,67.9,29.99,SSE,162,2.0,4.0,99,0.00,CLR,,0.00,0.0,WeatherDisplay:10.37,2013-04-22 18:35:00,
2013-04-23 04:40:00,68.1,67.8,29.98,SSE,167,2.0,4.0,99,0.00,CLR,,0.00,0.0,WeatherDisplay:10.37,2013-04-22 18:40:00,
2013-04-23 04:45:00,68.1,67.8,29.99,SSE,167,2.0,3.0,99,0.00,CLR,,0.00,0.0,WeatherDisplay:10.37,2013-04-22 18:45:00,
2013-04-23 04:50:00,68.2,67.9,29.99,South,178,3.0,5.0,99,0.00,CLR,,0.00,0.0,WeatherDisplay:10.37,2013-04-22 18:50:00,
2013-04-23 04:55:00,68.3,68.0,29.99,SSE,161,3.0,6.0,99,0.00,CLR,,0.00,0.0,WeatherDisplay:10.37,2013-04-22 18:55:00,
2013-04-23 05:00:00,68.4,68.1,29.99,SSE,150,2.0,6.0,99,0.00,CLR,,0.00,0.0,WeatherDisplay:10.37,2013-04-22 19:00:00,
2013-04-23 05:05:00,68.4,68.1,29.99,SSE,167,3.0,6.0,99,0.00,CLR,,0.00,0.0,WeatherDisplay:10.37,2013-04-22 19:05:00,
2013-04-23 05:10:00,68.4,68.1,29.99,South,182,1.0,5.0,99,0.00,CLR,,0.00,0.0,WeatherDisplay:10.37,2013-04-22 19:10:00,
2013-04-23 05:15:00,68.4,68.1,29.99,South,191,1.0,3.0,99,0.00,CLR,,0.00,0.0,WeatherDisplay:10.37,2013-04-22 19:15:00,
2013-04-23 05:20:00,68.5,68.2,29.99,SSW,211,2.0,4.0,99,0.00,CLR,,0.00,0.0,WeatherDisplay:10.37,2013-04-22 19:20:00,
2013-04-23 05:25:00,68.5,68.2,29.99,SSW,194,2.0,3.0,99,0.00,CLR,,0.00,0.0,WeatherDisplay:10.37,2013-04-22 19:25:00,
2013-04-23 05:30:00,68.5,68.2,29.99,South,182,1.0,4.0,99,0.00,CLR,,0.00,0.0,WeatherDisplay:10.37,2013-04-22 19:30:00,
2013-04-23 05:35:00,68.5,68.2,29.99,SSW,200,1.0,3.0,99,0.00,CLR,,0.00,0.0,WeatherDisplay:10.37,2013-04-22 19:35:00,
2013-04-23 05:40:00,68.5,68.2,30.00,SSW,199,0.0,3.0,99,0.00,CLR,,0.00,0.0,WeatherDisplay:10.37,2013-04-22 19:40:00,
2013-04-23 05:45:00,68.5,68.2,29.99,South,182,2.0,4.0,99,0.00,CLR,,0.00,0.0,WeatherDisplay:10.37,2013-04-22 19:45:00,
2013-04-23 05:50:00,68.5,68.2,29.99,South,170,1.0,4.0,99,0.00,CLR,,0.00,0.0,WeatherDisplay:10.37,2013-04-22 19:50:00,
2013-04-23 05:55:00,68.4,68.1,29.99,South,176,2.0,5.0,99,0.00,CLR,,0.00,0.0,WeatherDisplay:10.37,2013-04-22 19:55:00,
2013-04-23 06:00:00,68.2,67.9,30.00,South,172,1.0,3.0,99,0.00,CLR,,0.00,0.0,WeatherDisplay:10.37,2013-04-22 20:00:00,
2013-04-23 06:05:00,68.2,67.9,30.00,SSE,167,0.0,2.0,99,0.00,CLR,,0.00,0.0,WeatherDisplay:10.37,2013-04-22 20:05:00,
2013-04-23 06:10:00,68.2,67.9,30.00,SSE,150,2.0,5.0,99,0.00,CLR,,0.00,0.0,WeatherDisplay:10.37,2013-04-22 20:10:00,
2013-04-23 06:15:00,68.0,67.7,30.00,SE,141,1.0,3.0,99,0.00,CLR,,0.00,0.0,WeatherDisplay:10.37,2013-04-22 20:15:00,
2013-04-23 06:20:00,68.0,67.7,30.01,SSE,154,1.0,3.0,99,0.00,CLR,,0.00,0.0,WeatherDisplay:10.37,2013-04-22 20:20:00,
2013-04-23 06:25:00,68.0,67.7,30.01,SSE,150,0.0,2.0,99,0.00,CLR,,0.00,0.0,WeatherDisplay:10.37,2013-04-22 20:25:00,
2013-04-23 06:30:00,68.0,67.7,30.01,SE,135,0.0,2.0,99,0.00,CLR,,0.00,1.1,WeatherDisplay:10.37,2013-04-22 20:30:00,
2013-04-23 06:35:00,68.0,67.7,30.01,SE,135,0.0,1.0,99,0.00,CLR,,0.00,6.0,WeatherDisplay:10.37,2013-04-22 20:35:00,
2013-04-23 06:40:00,67.8,67.5,30.01,SE,135,0.0,1.0,99,0.00,CLR,,0.00,9.1,WeatherDisplay:10.37,2013-04-22 20:40:00,
2013-04-23 06:45:00,67.7,67.4,30.01,SE,135,0.0,1.0,99,0.00,CLR,,0.00,13.5,WeatherDisplay:10.37,2013-04-22 20:45:00,
2013-04-23 06:50:00,67.6,67.3,30.02,SE,135,0.0,0.0,99,0.00,BKN,,0.00,24.6,WeatherDisplay:10.37,2013-04-22 20:50:00,
2013-04-23 06:55:00,67.8,67.5,30.01,SE,135,0.0,0.0,99,0.00,BKN,,0.00,47.7,WeatherDisplay:10.37,2013-04-22 20:55:00,
2013-04-23 07:00:00,68.2,67.9,30.02,SE,135,0.0,0.0,99,0.00,BKN,,0.00,59.9,WeatherDisplay:10.37,2013-04-22 21:00:00,
2013-04-23 07:05:00,68.0,67.7,30.02,SSE,161,2.0,3.0,99,0.00,BKN,,0.00,43.9,WeatherDisplay:10.37,2013-04-22 21:05:00,
2013-04-23 07:10:00,67.6,67.3,30.03,South,180,2.0,4.0,99,0.00,BKN,,0.00,55.2,WeatherDisplay:10.37,2013-04-22 21:10:00,
2013-04-23 07:15:00,67.5,67.2,30.03,South,180,0.0,3.0,99,0.00,BKN,,0.00,40.1,WeatherDisplay:10.37,2013-04-22 21:15:00,
2013-04-23 07:20:00,67.6,67.3,30.03,South,180,0.0,1.0,99,0.00,SCT,,0.00,76.8,WeatherDisplay:10.37,2013-04-22 21:20:00,
2013-04-23 07:25:00,67.8,67.5,30.03,South,178,2.0,4.0,99,0.00,CLR,,0.00,133.0,WeatherDisplay:10.37,2013-04-22 21:25:00,
2013-04-23 07:30:00,68.0,67.7,30.03,SSE,155,2.0,5.0,99,0.00,CLR,,0.00,115.0,WeatherDisplay:10.37,2013-04-22 21:30:00,
2013-04-23 07:35:00,67.8,67.5,30.04,SE,144,2.0,6.0,99,0.00,FEW,,0.00,72.2,WeatherDisplay:10.37,2013-04-22 21:35:00,
2013-04-23 07:40:00,67.9,67.6,30.03,SSE,165,1.0,3.0,99,0.00,CLR,,0.00,81.0,WeatherDisplay:10.37,2013-04-22 21:40:00,
2013-04-23 07:50:00,69.1,68.8,30.04,South,178,0.0,3.0,99,0.00,CLR,,0.00,49.0,WeatherDisplay:10.37,2013-04-22 21:50:00,
2013-04-23 07:55:00,69.9,69.3,30.04,SSE,159,2.0,4.0,98,0.00,CLR,,0.00,33.0,WeatherDisplay:10.37,2013-04-22 21:55:00,
2013-04-23 08:00:00,69.4,69.1,30.04,SE,146,1.0,6.0,99,0.00,CLR,,0.00,18.0,WeatherDisplay:10.37,2013-04-22 22:00:00,
2013-04-23 08:05:00,69.9,69.3,30.05,SE,142,2.0,4.0,98,0.00,CLR,,0.00,4.0,WeatherDisplay:10.37,2013-04-22 22:05:00,
2013-04-23 08:10:00,70.9,70.3,30.05,SE,139,1.0,3.0,98,0.00,OVC,,0.00,564.6,WeatherDisplay:10.37,2013-04-22 22:10:00,
2013-04-23 08:15:00,72.5,71.6,30.05,SE,145,2.0,4.0,97,0.00,OVC,,0.00,615.5,WeatherDisplay:10.37,2013-04-22 22:15:00,
2013-04-23 08:20:00,72.1,71.2,30.05,SE,145,3.0,5.0,97,0.00,OVC,,0.00,668.9,WeatherDisplay:10.37,2013-04-22 22:20:00,
2013-04-23 08:25:00,72.0,70.8,30.05,SE,144,0.0,5.0,96,0.00,OVC,,0.00,678.5,WeatherDisplay:10.37,2013-04-22 22:25:00,
2013-04-23 08:30:00,73.8,72.2,30.05,SSE,165,1.0,4.0,95,0.00,OVC,,0.00,704.4,WeatherDisplay:10.37,2013-04-22 22:30:00,
2013-04-23 08:35:00,73.5,70.4,30.05,SSE,167,1.0,6.0,90,0.00,OVC,,0.00,727.3,WeatherDisplay:10.37,2013-04-22 22:35:00,
2013-04-23 08:40:00,74.7,71.2,30.06,SSE,151,3.0,6.0,89,0.00,OVC,,0.00,737.3,WeatherDisplay:10.37,2013-04-22 22:40:00,
2013-04-23 08:45:00,74.3,69.8,30.06,SE,138,2.0,6.0,86,0.00,OVC,,0.00,742.8,WeatherDisplay:10.37,2013-04-22 22:45:00,
2013-04-23 08:50:00,75.2,70.0,30.06,SE,139,3.0,6.0,84,0.00,OVC,,0.00,745.2,WeatherDisplay:10.37,2013-04-22 22:50:00,
2013-04-23 08:55:00,76.2,70.3,30.06,SSE,150,2.0,6.0,82,0.00,OVC,,0.00,330.9,WeatherDisplay:10.37,2013-04-22 22:55:00,
2013-04-23 09:00:00,75.6,69.0,30.06,SSE,156,2.0,6.0,80,0.00,OVC,,0.00,762.8,WeatherDisplay:10.37,2013-04-22 23:00:00,
2013-04-23 09:05:00,78.1,71.1,30.06,South,176,1.0,4.0,79,0.00,OVC,,0.00,783.8,WeatherDisplay:10.37,2013-04-22 23:05:00,
2013-04-23 09:10:00,79.5,70.1,30.06,South,186,1.0,4.0,73,0.00,OVC,,0.00,781.6,WeatherDisplay:10.37,2013-04-22 23:10:00,
2013-04-23 09:15:00,81.6,71.3,30.06,SSW,206,1.0,3.0,71,0.00,OVC,,0.00,800.9,WeatherDisplay:10.37,2013-04-22 23:15:00,
2013-04-23 09:20:00,81.1,69.5,30.06,SSE,152,3.0,6.0,68,0.00,OVC,,0.00,824.9,WeatherDisplay:10.37,2013-04-22 23:20:00,
2013-04-23 09:25:00,81.2,70.5,30.06,SSE,148,0.0,5.0,70,0.00,OVC,,0.00,852.0,WeatherDisplay:10.37,2013-04-22 23:25:00,
2013-04-23 09:30:00,83.3,70.7,30.07,SSE,168,0.0,0.0,66,0.00,OVC,,0.00,872.4,WeatherDisplay:10.37,2013-04-22 23:30:00,
2013-04-23 09:35:00,85.2,70.8,30.06,South,180,0.0,2.0,62,0.00,OVC,,0.00,907.0,WeatherDisplay:10.37,2013-04-22 23:35:00,
2013-04-23 09:40:00,85.4,69.9,30.06,South,170,0.0,2.0,60,0.00,OVC,,0.00,931.4,WeatherDisplay:10.37,2013-04-22 23:40:00,
2013-04-23 09:45:00,85.5,69.0,30.06,NNW,330,1.0,6.0,58,0.00,OVC,,0.00,980.0,WeatherDisplay:10.37,2013-04-22 23:45:00,
2013-04-23 09:50:00,83.5,69.6,30.06,NNW,339,3.0,6.0,63,0.00,OVC,,0.00,1081.1,WeatherDisplay:10.37,2013-04-22 23:50:00,
2013-04-23 09:55:00,83.0,70.0,30.06,NNW,347,5.0,6.0,65,0.00,OVC,,0.00,1021.7,WeatherDisplay:10.37,2013-04-22 23:55:00,
2013-04-23 10:00:00,82.6,69.6,30.06,ENE,57,3.0,7.0,65,0.00,OVC,,0.00,1061.9,WeatherDisplay:10.37,2013-04-23 00:00:00,
2013-04-23 10:05:00,83.2,69.8,30.06,ENE,71,5.0,7.0,64,0.00,OVC,,0.00,1081.1,WeatherDisplay:10.37,2013-04-23 00:05:00,
2013-04-23 10:10:00,82.6,69.6,30.06,NE,41,3.0,8.0,65,0.00,OVC,,0.00,1108.5,WeatherDisplay:10.37,2013-04-23 00:10:00,
2013-04-23 10:15:00,83.0,69.6,30.05,NE,35,2.0,8.0,64,0.00,OVC,,0.00,1123.2,WeatherDisplay:10.37,2013-04-23 00:15:00,
2013-04-23 10:20:00,83.0,69.6,30.05,NE,51,6.0,8.0,64,0.00,OVC,,0.00,1143.6,WeatherDisplay:10.37,2013-04-23 00:20:00,
2013-04-23 10:30:00,83.2,69.8,30.05,ENE,78,2.0,8.0,64,0.00,OVC,,0.00,1186.1,WeatherDisplay:10.37,2013-04-23 00:30:00,
2013-04-23 10:35:00,84.9,69.0,30.05,East,81,5.0,9.0,59,0.00,OVC,,0.00,1224.0,WeatherDisplay:10.37,2013-04-23 00:35:00,
2013-04-23 10:40:00,84.5,69.5,30.05,NNE,24,5.0,9.0,61,0.00,OVC,,0.00,1266.1,WeatherDisplay:10.37,2013-04-23 00:40:00,
2013-04-23 10:45:00,85.1,70.1,30.05,North,4,2.0,6.0,61,0.00,OVC,,0.00,1310.6,WeatherDisplay:10.37,2013-04-23 00:45:00,
2013-04-23 10:50:00,85.9,69.4,30.05,NNE,24,6.0,7.0,58,0.00,OVC,,0.00,1297.4,WeatherDisplay:10.37,2013-04-23 00:50:00,
2013-04-23 10:55:00,84.1,69.7,30.04,NNE,17,5.0,9.0,62,0.00,OVC,,0.00,1297.9,WeatherDisplay:10.37,2013-04-23 00:55:00,
2013-04-23 11:00:00,84.0,69.1,30.04,North,7,3.0,9.0,61,0.00,OVC,,0.00,1309.1,WeatherDisplay:10.37,2013-04-23 01:00:00,
2013-04-23 11:05:00,84.7,68.2,30.04,NNE,25,3.0,7.0,58,0.00,OVC,,0.00,955.6,WeatherDisplay:10.37,2013-04-23 01:05:00,
2013-04-23 11:10:00,83.2,68.3,30.04,NE,42,2.0,7.0,61,0.00,OVC,,0.00,313.2,WeatherDisplay:10.37,2013-04-23 01:10:00,
2013-04-23 11:15:00,82.2,68.8,30.03,NNE,12,2.0,7.0,64,0.00,OVC,,0.00,1058.6,WeatherDisplay:10.37,2013-04-23 01:15:00,
2013-04-23 11:20:00,82.7,69.7,30.03,NNW,338,2.0,4.0,65,0.00,OVC,,0.00,598.4,WeatherDisplay:10.37,2013-04-23 01:20:00,
2013-04-23 11:25:00,82.3,68.9,30.03,WSW,241,2.0,6.0,64,0.00,OVC,,0.00,1505.6,WeatherDisplay:10.37,2013-04-23 01:25:00,
2013-04-23 11:30:00,83.6,69.7,30.03,SSE,157,3.0,6.0,63,0.00,OVC,,0.00,1465.3,WeatherDisplay:10.37,2013-04-23 01:30:00,
2013-04-23 11:40:00,86.2,68.6,30.02,NE,51,2.0,9.0,56,0.00,OVC,,0.00,610.3,WeatherDisplay:10.37,2013-04-23 01:40:00,
2013-04-23 11:45:00,85.6,69.1,30.02,NNE,19,1.0,6.0,58,0.00,OVC,,0.00,1516.9,WeatherDisplay:10.37,2013-04-23 01:45:00,
2013-04-23 11:50:00,86.5,69.0,30.02,NW,320,2.0,4.0,56,0.00,OVC,,0.00,1495.7,WeatherDisplay:10.37,2013-04-23 01:50:00,
2013-04-23 11:55:00,85.5,69.0,30.01,NNW,343,5.0,7.0,58,0.00,OVC,,0.00,668.2,WeatherDisplay:10.37,2013-04-23 01:55:00,
2013-04-23 12:00:00,83.0,68.2,30.01,North,359,1.0,8.0,61,0.00,OVC,,0.00,513.6,WeatherDisplay:10.37,2013-04-23 02:00:00,
2013-04-23 12:05:00,83.6,69.2,30.01,NNW,334,5.0,6.0,62,0.00,OVC,,0.00,1433.4,WeatherDisplay:10.37,2013-04-23 02:05:00,
2013-04-23 12:10:00,85.1,69.7,30.01,South,174,2.0,6.0,60,0.00,OVC,,0.00,1392.6,WeatherDisplay:10.37,2013-04-23 02:10:00,
2013-04-23 12:15:00,87.1,70.5,30.01,East,99,7.0,17.0,58,0.00,OVC,,0.00,1398.4,WeatherDisplay:10.37,2013-04-23 02:15:00,
2013-04-23 12:20:00,86.7,69.1,30.00,ENE,77,2.0,8.0,56,0.00,OVC,,0.00,1407.9,WeatherDisplay:10.37,2013-04-23 02:20:00,
2013-04-23 12:25:00,87.9,68.0,30.00,ENE,60,3.0,9.0,52,0.00,OVC,,0.00,1426.6,WeatherDisplay:10.37,2013-04-23 02:25:00,
2013-04-23 12:30:00,87.1,68.5,30.00,NNE,22,3.0,10.0,54,0.00,OVC,,0.00,1411.9,WeatherDisplay:10.37,2013-04-23 02:30:00,
2013-04-23 12:40:00,87.4,68.8,30.00,NNW,335,3.0,6.0,54,0.00,OVC,,0.00,1402.9,WeatherDisplay:10.37,2013-04-23 02:40:00,
2013-04-23 12:45:00,87.8,68.5,30.00,WNW,283,3.0,5.0,53,0.00,OVC,,0.00,1402.8,WeatherDisplay:10.37,2013-04-23 02:45:00,
2013-04-23 12:50:00,88.8,69.4,30.00,West,275,3.0,6.0,53,0.00,OVC,,0.00,1408.5,WeatherDisplay:10.37,2013-04-23 02:50:00,
2013-04-23 12:55:00,88.0,68.1,29.99,WNW,301,2.0,6.0,52,0.00,OVC,,0.00,1399.1,WeatherDisplay:10.37,2013-04-23 02:55:00,
2013-04-23 13:00:00,86.7,68.0,29.99,West,276,2.0,8.0,54,0.00,OVC,,0.00,1384.5,WeatherDisplay:10.37,2013-04-23 03:00:00,
2013-04-23 13:05:00,87.6,68.9,29.99,WNW,297,6.0,8.0,54,0.00,OVC,,0.00,1383.5,WeatherDisplay:10.37,2013-04-23 03:05:00,
2013-04-23 13:10:00,88.0,68.1,29.98,North,354,3.0,8.0,52,0.00,OVC,,0.00,1376.2,WeatherDisplay:10.37,2013-04-23 03:10:00,
2013-04-23 13:20:00,87.3,68.6,29.98,NW,310,3.0,8.0,54,0.00,OVC,,0.00,1349.2,WeatherDisplay:10.37,2013-04-23 03:20:00,
2013-04-23 13:25:00,87.2,69.0,29.98,WNW,303,6.0,10.0,55,0.00,OVC,,0.00,1345.1,WeatherDisplay:10.37,2013-04-23 03:25:00,
2013-04-23 13:30:00,89.3,68.8,29.97,North,360,2.0,6.0,51,0.00,OVC,,0.00,1343.1,WeatherDisplay:10.37,2013-04-23 03:30:00,
2013-04-23 13:35:00,91.0,68.0,29.97,North,360,2.0,6.0,47,0.00,OVC,,0.00,1345.4,WeatherDisplay:10.37,2013-04-23 03:35:00,
2013-04-23 13:40:00,90.5,68.7,29.97,NNE,33,6.0,15.0,49,0.00,OVC,,0.00,1332.5,WeatherDisplay:10.37,2013-04-23 03:40:00,
2013-04-23 13:45:00,89.4,68.3,29.97,ENE,59,2.0,8.0,50,0.00,OVC,,0.00,1318.0,WeatherDisplay:10.37,2013-04-23 03:45:00,
2013-04-23 13:50:00,90.4,68.6,29.97,ENE,77,5.0,8.0,49,0.00,OVC,,0.00,1305.9,WeatherDisplay:10.37,2013-04-23 03:50:00,
2013-04-23 13:55:00,91.6,69.1,29.97,NE,43,5.0,12.0,48,0.00,OVC,,0.00,1297.1,WeatherDisplay:10.37,2013-04-23 03:55:00,
2013-04-23 14:00:00,91.2,68.2,29.96,NE,39,3.0,7.0,47,0.00,OVC,,0.00,1284.5,WeatherDisplay:10.37,2013-04-23 04:00:00,
2013-04-23 14:05:00,91.2,68.2,29.96,NNE,23,5.0,10.0,47,0.00,OVC,,0.00,1269.0,WeatherDisplay:10.37,2013-04-23 04:05:00,
2013-04-23 14:10:00,90.0,68.2,29.96,North,11,5.0,10.0,49,0.00,OVC,,0.00,1240.9,WeatherDisplay:10.37,2013-04-23 04:10:00,
2013-04-23 14:15:00,89.8,68.7,29.96,North,356,3.0,8.0,50,0.00,OVC,,0.00,1225.5,WeatherDisplay:10.37,2013-04-23 04:15:00,
2013-04-23 14:20:00,89.8,68.1,29.96,North,359,3.0,8.0,49,0.00,OVC,,0.00,1191.4,WeatherDisplay:10.37,2013-04-23 04:20:00,
2013-04-23 14:25:00,89.5,69.0,29.95,NNE,26,2.0,11.0,51,0.00,OVC,,0.00,1126.3,WeatherDisplay:10.37,2013-04-23 04:25:00,
2013-04-23 14:30:00,89.6,69.1,29.95,North,4,3.0,9.0,51,0.00,OVC,,0.00,1127.8,WeatherDisplay:10.37,2013-04-23 04:30:00,
2013-04-23 14:35:00,88.8,68.9,29.95,North,7,7.0,13.0,52,0.00,OVC,,0.00,1057.1,WeatherDisplay:10.37,2013-04-23 04:35:00,
2013-04-23 14:40:00,89.0,69.1,29.95,North,11,3.0,7.0,52,0.00,OVC,,0.00,1102.2,WeatherDisplay:10.37,2013-04-23 04:40:00,
2013-04-23 14:45:00,89.5,70.1,29.95,North,1,5.0,8.0,53,0.00,OVC,,0.00,1031.7,WeatherDisplay:10.37,2013-04-23 04:45:00,
2013-04-23 14:50:00,89.2,69.3,29.95,NNE,32,7.0,10.0,52,0.00,OVC,,0.00,968.3,WeatherDisplay:10.37,2013-04-23 04:50:00,
2013-04-23 14:55:00,88.4,69.1,29.95,NE,40,6.0,10.0,53,0.00,OVC,,0.00,989.7,WeatherDisplay:10.37,2013-04-23 04:55:00,
2013-04-23 15:00:00,88.7,69.4,29.94,NE,54,6.0,10.0,53,0.00,OVC,,0.00,959.8,WeatherDisplay:10.37,2013-04-23 05:00:00,
2013-04-23 15:05:00,88.3,69.6,29.94,NE,43,5.0,8.0,54,0.00,OVC,,0.00,932.5,WeatherDisplay:10.37,2013-04-23 05:05:00,
2013-04-23 15:10:00,88.7,69.9,29.94,ENE,71,5.0,8.0,54,0.00,OVC,,0.00,924.5,WeatherDisplay:10.37,2013-04-23 05:10:00,
2013-04-23 15:20:00,86.1,69.1,29.92,NE,48,6.0,15.0,57,0.00,OVC,,0.00,250.5,WeatherDisplay:10.37,2013-04-23 05:20:00,
2013-04-23 15:25:00,87.2,70.6,29.94,NE,52,5.0,15.0,58,0.00,OVC,,0.00,835.5,WeatherDisplay:10.37,2013-04-23 05:25:00,
2013-04-23 15:30:00,87.1,71.5,29.94,ENE,61,6.0,13.0,60,0.00,OVC,,0.00,823.2,WeatherDisplay:10.37,2013-04-23 05:30:00,
2013-04-23 15:35:00,86.4,71.8,29.94,NE,39,8.0,13.0,62,0.00,OVC,,0.00,778.8,WeatherDisplay:10.37,2013-04-23 05:35:00,
2013-04-23 15:40:00,86.0,71.5,29.94,NNE,14,8.0,14.0,62,0.00,OVC,,0.00,741.7,WeatherDisplay:10.37,2013-04-23 05:40:00,
2013-04-23 15:45:00,86.0,71.9,29.94,NNE,18,8.0,13.0,63,0.00,OVC,,0.00,732.1,WeatherDisplay:10.37,2013-04-23 05:45:00,
2013-04-23 15:50:00,85.8,72.2,29.94,NNE,30,7.0,12.0,64,0.00,OVC,,0.00,721.4,WeatherDisplay:10.37,2013-04-23 05:50:00,
2013-04-23 15:55:00,85.7,72.2,29.94,NE,38,9.0,13.0,64,0.00,OVC,,0.00,671.9,WeatherDisplay:10.37,2013-04-23 05:55:00,
2013-04-23 16:00:00,85.1,72.0,29.94,NE,45,7.0,11.0,65,0.00,OVC,,0.00,661.3,WeatherDisplay:10.37,2013-04-23 06:00:00,
2013-04-23 16:05:00,84.9,71.8,29.94,NE,45,6.0,12.0,65,0.00,OVC,,0.00,627.8,WeatherDisplay:10.37,2013-04-23 06:05:00,
2013-04-23 16:10:00,85.3,72.2,29.94,NE,36,8.0,10.0,65,0.00,OVC,,0.00,615.3,WeatherDisplay:10.37,2013-04-23 06:10:00,
2013-04-23 16:15:00,84.2,71.2,29.95,NE,42,8.0,14.0,65,0.00,OVC,,0.00,575.4,WeatherDisplay:10.37,2013-04-23 06:15:00,
2013-04-23 16:20:00,83.4,71.3,29.95,NE,42,9.0,14.0,67,0.00,OVC,,0.00,550.3,WeatherDisplay:10.37,2013-04-23 06:20:00,
2013-04-23 16:25:00,83.3,71.6,29.95,NE,42,7.0,13.0,68,0.00,OVC,,0.00,517.1,WeatherDisplay:10.37,2013-04-23 06:25:00,
2013-04-23 16:30:00,83.3,71.6,29.95,NE,38,8.0,12.0,68,0.00,OVC,,0.00,491.2,WeatherDisplay:10.37,2013-04-23 06:30:00,
2013-04-23 16:35:00,82.9,71.3,29.95,NNE,26,7.0,12.0,68,0.00,OVC,,0.00,466.9,WeatherDisplay:10.37,2013-04-23 06:35:00,
2013-04-23 16:40:00,82.4,71.2,29.95,NNE,15,8.0,13.0,69,0.00,OVC,,0.00,420.4,WeatherDisplay:10.37,2013-04-23 06:40:00,
2013-04-23 16:45:00,82.3,71.6,29.95,NNE,25,8.0,12.0,70,0.00,OVC,,0.00,383.8,WeatherDisplay:10.37,2013-04-23 06:45:00,
2013-04-23 16:50:00,82.1,71.3,29.96,NNE,31,7.0,13.0,70,0.00,OVC,,0.00,339.4,WeatherDisplay:10.37,2013-04-23 06:50:00,
2013-04-23 16:55:00,82.1,71.8,29.95,NNE,27,7.0,11.0,71,0.00,OVC,,0.00,314.6,WeatherDisplay:10.37,2013-04-23 06:55:00,
2013-04-23 17:00:00,81.7,71.4,29.96,NNE,19,8.0,12.0,71,0.00,CLR,,0.00,283.4,WeatherDisplay:10.37,2013-04-23 07:00:00,
2013-04-23 17:05:00,81.7,71.4,29.96,NNE,23,6.0,9.0,71,0.00,CLR,,0.00,250.1,WeatherDisplay:10.37,2013-04-23 07:05:00,
2013-04-23 17:10:00,81.5,71.6,29.96,NE,43,8.0,13.0,72,0.00,CLR,,0.00,219.6,WeatherDisplay:10.37,2013-04-23 07:10:00,
2013-04-23 17:15:00,80.6,70.7,29.96,NE,43,6.0,13.0,72,0.00,CLR,,0.00,176.2,WeatherDisplay:10.37,2013-04-23 07:15:00,
2013-04-23 17:20:00,80.5,71.1,29.97,NE,41,6.0,9.0,73,0.00,CLR,,0.00,154.9,WeatherDisplay:10.37,2013-04-23 07:20:00,
2013-04-23 17:25:00,80.4,71.4,29.97,NE,45,6.0,9.0,74,0.00,CLR,,0.00,127.8,WeatherDisplay:10.37,2013-04-23 07:25:00,
2013-04-23 17:30:00,80.1,71.0,29.97,NE,54,8.0,10.0,74,0.00,CLR,,0.00,108.3,WeatherDisplay:10.37,2013-04-23 07:30:00,
2013-04-23 17:35:00,79.3,70.7,29.97,ENE,57,6.0,10.0,75,0.00,CLR,,0.00,85.0,WeatherDisplay:10.37,2013-04-23 07:35:00,
2013-04-23 17:40:00,78.8,70.6,29.97,NE,46,6.0,12.0,76,0.00,CLR,,0.00,68.9,WeatherDisplay:10.37,2013-04-23 07:40:00,
2013-04-23 17:45:00,78.2,70.7,29.97,NE,47,6.0,12.0,78,0.00,CLR,,0.00,65.4,WeatherDisplay:10.37,2013-04-23 07:45:00,
2013-04-23 17:50:00,77.7,70.7,29.97,NE,44,5.0,9.0,79,0.00,CLR,,0.00,26.7,WeatherDisplay:10.37,2013-04-23 07:50:00,
2013-04-23 17:55:00,76.9,70.6,29.98,NNE,30,5.0,8.0,81,0.00,CLR,,0.00,16.6,WeatherDisplay:10.37,2013-04-23 07:55:00,
2013-04-23 18:00:00,76.3,71.1,29.98,North,10,3.0,7.0,84,0.00,CLR,,0.00,10.2,WeatherDisplay:10.37,2013-04-23 08:00:00,
2013-04-23 18:05:00,75.5,70.7,29.98,North,0,2.0,6.0,85,0.00,CLR,,0.00,3.7,WeatherDisplay:10.37,2013-04-23 08:05:00,
2013-04-23 18:10:00,74.9,70.8,29.98,North,6,3.0,6.0,87,0.00,CLR,,0.00,0.0,WeatherDisplay:10.37,2013-04-23 08:10:00,
2013-04-23 18:15:00,74.5,70.4,29.98,North,5,2.0,5.0,87,0.00,CLR,,0.00,0.0,WeatherDisplay:10.37,2013-04-23 08:15:00,
2013-04-23 18:20:00,74.1,70.3,29.98,North,0,2.0,5.0,88,0.00,CLR,,0.00,0.0,WeatherDisplay:10.37,2013-04-23 08:20:00,
2013-04-23 18:25:00,73.9,70.2,29.99,North,0,2.0,5.0,88,0.00,CLR,,0.00,0.0,WeatherDisplay:10.37,2013-04-23 08:25:00,
2013-04-23 18:30:00,73.5,70.1,29.99,North,352,1.0,3.0,89,0.00,CLR,,0.00,0.0,WeatherDisplay:10.37,2013-04-23 08:30:00,
2013-04-23 18:35:00,73.2,70.1,29.99,North,3,3.0,6.0,90,0.00,CLR,,0.00,0.0,WeatherDisplay:10.37,2013-04-23 08:35:00,
2013-04-23 18:40:00,73.0,69.9,29.99,North,359,3.0,6.0,90,0.00,CLR,,0.00,0.0,WeatherDisplay:10.37,2013-04-23 08:40:00,
2013-04-23 18:45:00,72.9,69.8,29.99,North,355,2.0,4.0,90,0.00,CLR,,0.00,0.0,WeatherDisplay:10.37,2013-04-23 08:45:00,
2013-04-23 18:50:00,72.5,69.7,29.99,North,3,3.0,5.0,91,0.00,CLR,,0.00,0.0,WeatherDisplay:10.37,2013-04-23 08:50:00,
2013-04-23 18:55:00,72.4,69.6,30.00,North,2,2.0,5.0,91,0.00,CLR,,0.00,0.0,WeatherDisplay:10.37,2013-04-23 08:55:00,
2013-04-23 19:05:00,72.1,69.7,30.00,North,357,3.0,5.0,92,0.00,CLR,,0.00,0.0,WeatherDisplay:10.37,2013-04-23 09:05:00,
2013-04-23 19:10:00,72.0,69.5,30.00,North,353,3.0,6.0,92,0.00,CLR,,0.00,0.0,WeatherDisplay:10.37,2013-04-23 09:10:00,
2013-04-23 19:15:00,71.8,69.3,30.01,NNW,346,2.0,6.0,92,0.00,CLR,,0.00,0.0,WeatherDisplay:10.37,2013-04-23 09:15:00,
2013-04-23 19:20:00,71.5,69.7,30.01,NNW,331,1.0,3.0,94,0.00,CLR,,0.00,0.0,WeatherDisplay:10.37,2013-04-23 09:20:00,
2013-04-23 19:25:00,71.2,69.4,30.01,NW,315,1.0,2.0,94,0.00,CLR,,0.00,0.0,WeatherDisplay:10.37,2013-04-23 09:25:00,
2013-04-23 19:30:00,71.1,69.2,30.01,NW,315,2.0,3.0,94,0.00,CLR,,0.00,0.0,WeatherDisplay:10.37,2013-04-23 09:30:00,
2013-04-23 19:35:00,70.9,69.4,30.02,NW,315,1.0,3.0,95,0.00,CLR,,0.00,0.0,WeatherDisplay:10.37,2013-04-23 09:35:00,
2013-04-23 19:40:00,70.8,69.3,30.02,NW,315,0.0,1.0,95,0.00,CLR,,0.00,0.0,WeatherDisplay:10.37,2013-04-23 09:40:00,
2013-04-23 19:45:00,70.7,69.5,30.02,NW,315,0.0,0.0,96,0.00,CLR,,0.00,0.0,WeatherDisplay:10.37,2013-04-23 09:45:00,
2013-04-23 19:50:00,70.5,69.3,30.02,NW,315,0.0,0.0,96,0.00,CLR,,0.00,0.0,WeatherDisplay:10.37,2013-04-23 09:50:00,
2013-04-23 19:55:00,70.4,69.2,30.03,NW,315,0.0,0.0,96,0.00,CLR,,0.00,0.0,WeatherDisplay:10.37,2013-04-23 09:55:00,
2013-04-23 20:00:00,70.2,69.0,30.03,NW,319,0.0,0.0,96,0.00,CLR,,0.00,0.0,WeatherDisplay:10.37,2013-04-23 10:00:00,
2013-04-23 20:05:00,70.2,69.3,30.03,NW,324,0.0,0.0,97,0.00,CLR,,0.00,0.0,WeatherDisplay:10.37,2013-04-23 10:05:00,
2013-04-23 20:10:00,70.2,69.3,30.03,NW,319,0.0,0.0,97,0.00,CLR,,0.00,0.0,WeatherDisplay:10.37,2013-04-23 10:10:00,
2013-04-23 20:15:00,69.8,68.9,30.03,NW,315,0.0,0.0,97,0.00,CLR,,0.00,0.0,WeatherDisplay:10.37,2013-04-23 10:15:00,
2013-04-23 20:20:00,70.0,69.4,30.04,NW,315,0.0,0.0,98,0.00,CLR,,0.00,0.0,WeatherDisplay:10.37,2013-04-23 10:20:00,
2013-04-23 20:25:00,70.0,69.4,30.04,NW,315,0.0,0.0,98,0.00,CLR,,0.00,0.0,WeatherDisplay:10.37,2013-04-23 10:25:00,
2013-04-23 20:30:00,69.8,69.2,30.04,NW,315,0.0,0.0,98,0.00,CLR,,0.00,0.0,WeatherDisplay:10.37,2013-04-23 10:30:00,
2013-04-23 20:35:00,69.6,69.3,30.04,NW,315,0.0,0.0,99,0.00,CLR,,0.00,0.0,WeatherDisplay:10.37,2013-04-23 10:35:00,
2013-04-23 20:40:00,69.4,69.1,30.04,NW,315,0.0,0.0,99,0.00,CLR,,0.00,0.0,WeatherDisplay:10.37,2013-04-23 10:40:00,
2013-04-23 20:45:00,69.4,69.1,30.04,NNW,341,0.0,0.0,99,0.00,CLR,,0.00,0.0,WeatherDisplay:10.37,2013-04-23 10:45:00,
2013-04-23 20:50:00,69.4,69.1,30.04,North,0,0.0,0.0,99,0.00,CLR,,0.00,0.0,WeatherDisplay:10.37,2013-04-23 10:50:00,
2013-04-23 20:55:00,69.3,69.0,30.05,North,0,0.0,0.0,99,0.00,CLR,,0.00,0.0,WeatherDisplay:10.37,2013-04-23 10:55:00,
2013-04-23 21:00:00,69.1,68.8,30.05,NNW,346,0.0,0.0,99,0.00,CLR,,0.00,0.0,WeatherDisplay:10.37,2013-04-23 11:00:00,
2013-04-23 21:05:00,69.1,68.8,30.05,WNW,293,0.0,0.0,99,0.00,CLR,,0.00,0.0,WeatherDisplay:10.37,2013-04-23 11:05:00,
2013-04-23 21:10:00,68.9,68.6,30.05,West,270,0.0,0.0,99,0.00,CLR,,0.00,0.0,WeatherDisplay:10.37,2013-04-23 11:10:00,
2013-04-23 21:15:00,68.9,68.6,30.05,West,270,0.0,0.0,99,0.00,CLR,,0.00,0.0,WeatherDisplay:10.37,2013-04-23 11:15:00,
2013-04-23 21:20:00,68.7,68.4,30.05,West,270,0.0,0.0,99,0.00,CLR,,0.00,0.0,WeatherDisplay:10.37,2013-04-23 11:20:00,
2013-04-23 21:25:00,68.7,68.4,30.05,West,270,0.0,0.0,99,0.00,CLR,,0.00,0.0,WeatherDisplay:10.37,2013-04-23 11:25:00,
2013-04-23 21:30:00,68.7,68.4,30.05,West,270,0.0,0.0,99,0.00,CLR,,0.00,0.0,WeatherDisplay:10.37,2013-04-23 11:30:00,
2013-04-23 21:35:00,68.7,68.4,30.06,West,260,0.0,0.0,99,0.00,CLR,,0.00,0.0,WeatherDisplay:10.37,2013-04-23 11:35:00,
2013-04-23 21:40:00,68.5,68.2,30.06,SSW,208,0.0,0.0,99,0.00,CLR,,0.00,0.0,WeatherDisplay:10.37,2013-04-23 11:40:00,
2013-04-23 21:45:00,68.6,68.3,30.06,South,180,0.0,0.0,99,0.00,CLR,,0.00,0.0,WeatherDisplay:10.37,2013-04-23 11:45:00,
2013-04-23 21:50:00,68.9,68.6,30.06,SSW,196,0.0,0.0,99,0.00,CLR,,0.00,0.0,WeatherDisplay:10.37,2013-04-23 11:50:00,
2013-04-23 21:55:00,69.1,68.8,30.05,WSW,248,0.0,1.0,99,0.00,CLR,,0.00,0.0,WeatherDisplay:10.37,2013-04-23 11:55:00,
2013-04-23 22:00:00,69.1,68.8,30.06,West,267,0.0,1.0,99,0.00,CLR,,0.00,0.0,WeatherDisplay:10.37,2013-04-23 12:00:00,
2013-04-23 22:05:00,69.1,68.8,30.06,WSW,241,0.0,0.0,99,0.00,CLR,,0.00,0.0,WeatherDisplay:10.37,2013-04-23 12:05:00,
2013-04-23 22:10:00,69.1,68.8,30.06,WSW,251,0.0,0.0,99,0.00,CLR,,0.00,0.0,WeatherDisplay:10.37,2013-04-23 12:10:00,
2013-04-23 22:15:00,69.1,68.8,30.05,WNW,299,0.0,0.0,99,0.00,CLR,,0.00,0.0,WeatherDisplay:10.37,2013-04-23 12:15:00,
2013-04-23 22:20:00,68.8,68.5,30.05,WNW,300,0.0,0.0,99,0.00,CLR,,0.00,0.0,WeatherDisplay:10.37,2013-04-23 12:20:00,
2013-04-23 22:30:00,68.7,68.4,30.06,West,270,0.0,0.0,99,0.00,CLR,,0.00,0.0,WeatherDisplay:10.37,2013-04-23 12:30:00,
2013-04-23 22:35:00,68.7,68.4,30.06,West,272,0.0,0.0,99,0.00,CLR,,0.00,0.0,WeatherDisplay:10.37,2013-04-23 12:35:00,
2013-04-23 22:40:00,68.7,68.4,30.05,WNW,298,0.0,0.0,99,0.00,CLR,,0.00,0.0,WeatherDisplay:10.37,2013-04-23 12:40:00,
2013-04-23 22:45:00,68.5,68.2,30.06,NW,315,0.0,0.0,99,0.00,CLR,,0.00,0.0,WeatherDisplay:10.37,2013-04-23 12:45:00,
2013-04-23 22:50:00,68.5,68.2,30.06,NNW,339,0.0,0.0,99,0.00,CLR,,0.00,0.0,WeatherDisplay:10.37,2013-04-23 12:50:00,
2013-04-23 22:55:00,68.4,68.1,30.06,NNE,14,0.0,0.0,99,0.00,CLR,,0.00,0.0,WeatherDisplay:10.37,2013-04-23 12:55:00,
2013-04-23 23:00:00,68.4,68.1,30.06,North,3,0.0,0.0,99,0.00,CLR,,0.00,0.0,WeatherDisplay:10.37,2013-04-23 13:00:00,
2013-04-23 23:05:00,68.2,67.9,30.06,North,358,0.0,0.0,99,0.00,CLR,,0.00,0.0,WeatherDisplay:10.37,2013-04-23 13:05:00,
2013-04-23 23:10:00,68.3,68.0,30.05,North,0,0.0,0.0,99,0.00,CLR,,0.00,0.0,WeatherDisplay:10.37,2013-04-23 13:10:00,
2013-04-23 23:15:00,68.2,67.9,30.05,North,0,0.0,0.0,99,0.00,CLR,,0.00,0.0,WeatherDisplay:10.37,2013-04-23 13:15:00,
2013-04-23 23:20:00,68.2,67.9,30.05,North,0,0.0,0.0,99,0.00,CLR,,0.00,0.0,WeatherDisplay:10.37,2013-04-23 13:20:00,
2013-04-23 23:25:00,68.0,67.7,30.05,North,7,0.0,0.0,99,0.00,CLR,,0.00,0.0,WeatherDisplay:10.37,2013-04-23 13:25:00,
2013-04-23 23:30:00,67.9,67.6,30.05,North,5,0.0,0.0,99,0.00,CLR,,0.00,0.0,WeatherDisplay:10.37,2013-04-23 13:30:00,
2013-04-23 23:35:00,67.8,67.5,30.05,North,9,0.0,0.0,99,0.00,CLR,,0.00,0.0,WeatherDisplay:10.37,2013-04-23 13:35:00,
2013-04-23 23:40:00,67.6,67.3,30.05,NNE,32,0.0,0.0,99,0.00,CLR,,0.00,0.0,WeatherDisplay:10.37,2013-04-23 13:40:00,
2013-04-23 23:45:00,67.6,67.3,30.05,NE,45,0.0,0.0,99,0.00,CLR,,0.00,0.0,WeatherDisplay:10.37,2013-04-23 13:45:00,
2013-04-23 23:50:00,67.5,67.2,30.05,NE,45,0.0,0.0,99,0.00,CLR,,0.00,0.0,WeatherDisplay:10.37,2013-04-23 13:50:00,
2013-04-23 23:55:00,67.3,67.0,30.05,NE,45,0.0,0.0,99,0.00,CLR,,0.00,0.0,WeatherDisplay:10.37,2013-04-23 13:55:00,